Regional Weather Roundup
Issued by NWS Mt. Holly, NJ

Home | Current Version | Previous Version | Text Only | Print | Product List | Glossary On
Versions: 1 2 3 4 5 6 7 8 9 10 11 12 13 14 15 16 17 18 19 20 21 22 23 24 25 26 27
000
ASUS41 KPHI 270413
RWRPHI

REGIONAL WEATHER ROUNDUP
NATIONAL WEATHER SERVICE MOUNT HOLLY NJ
1200 AM EDT FRI APR 27 2018

NOTE:  "FAIR" INDICATES FEW OR NO CLOUDS BELOW 12,000 FEET WITH NO
SIGNIFICANT WEATHER AND/OR OBSTRUCTIONS TO VISIBILITY.

 * = STATION DOES NOT REPORT PRECIPITATION (E.G. RAIN, SNOW, ETC.)
        OR FOG.

NJZ015>026-270500-
SOUTHERN NEW JERSEY

CITY           SKY/WX    TMP DP  RH WIND       PRES   REMARKS
POMONA         FAIR      51  46  83 CALM      29.90R
WILDWOOD*      FAIR      54  47  77 SE3       29.89F
MILLVILLE      FAIR      52  47  83 CALM      29.88F
WRIGHTSTOWN    MOCLDY    52  47  82 S5        29.86S
MOUNT HOLLY    FAIR      52  46  80 CALM      29.89R
TRENTON        FAIR      56  43  61 SW5       29.88R

$$
NJZ001>014-270500-
NORTHERN NEW JERSEY

CITY           SKY/WX    TMP DP  RH WIND       PRES   REMARKS
SUSSEX         FAIR      47  43  86 CALM      29.89R
ANDOVER*         N/A     48  43  82 CALM      29.88R
MORRISTOWN     FAIR      52  46  82 CALM      29.88R
NEWARK         MOCLDY    59  42  53 NE3       29.87R
TETERBORO      FAIR      59  41  51 CALM      29.86R
CALDWELL       FAIR      53  45  74 CALM      29.88R
SOMERVILLE     FAIR      48  45  89 CALM      29.86R
ALLAIRE*       FAIR      56  43  61 SW6       29.89S
TOMS RIVER*    FAIR      47  44  90 CALM      29.90R

$$
PAZ043-044-047-054-055-060>062-066>071-270500-
EASTERN PENNSYLVANIA

CITY           SKY/WX    TMP DP  RH WIND       PRES   REMARKS
PHILADELPHIA   CLOUDY    57  45  64 CALM      29.89S
NORTH PHILA    FAIR      57  44  62 CALM      29.90R
BLUE BELL*     FAIR      48  46  93 CALM      29.90S
DOYLESTOWN     FAIR      52  43  71 CALM      29.88R
QUAKERTOWN*    CLEAR     48  45  87 CALM      29.88S
PERKASIE*      FAIR      48  45  87 CALM      29.89S
POTTSTOWN      FAIR      50  43  77 CALM      29.89S
LANCASTER      FAIR      50  44  80 E3        29.87S
COATESVILLE    FAIR      55  41  58 CALM      29.89F
READING        FAIR      51  45  79 SW6       29.87R
ALLENTOWN      FAIR      55  41  59 SW3       29.87S
MOUNT POCONO   FAIR      43  40  89 NW5       29.88R
HAZLETON       FAIR      41  32  70 CALM      29.90S
LEHIGHTON      FAIR      43  41  93 CALM      29.89S
WILKES BARRE   FAIR      50  40  68 E7        29.87R

$$
DEZALL-MDZ008-012-015-019-020-270500-
DELAWARE AND EASTERN MARYLAND

CITY           SKY/WX    TMP DP  RH WIND       PRES   REMARKS
WILMINGTON     FAIR      56  47  71 S3        29.88F
DOVER          MOCLDY    56  47  74 S5        29.88S
GEORGETOWN     FAIR      57  46  66 S5        29.89F
ABERDEEN       MOCLDY    53  46  77 CALM      29.87F
PATUXENT       FAIR      60  50  69 SE9       29.86
OCEAN CITY     FAIR      55  47  74 S3        29.89F
WALLOPS ISLAND FAIR      55  45  68 SE7       29.88F
CAMBRIDGE      PTCLDY    57  50  77 SE5       29.86F
SALISBURY      FAIR      54  45  71 CALM      29.88F

$$
PAZ001-021-NYZ056-072-MDZ011-DCZ001-270500-
OTHER NEARBY LOCATIONS

CITY           SKY/WX    TMP DP  RH WIND       PRES   REMARKS
HARRISBURG     CLOUDY    53  47  79 E3        29.85F
STATE COLLEGE  FAIR      51  35  54 CALM      29.86F
WILLIAMSPORT   FAIR      50  40  68 CALM      29.85S
BINGHAMTON     FAIR      44  33  65 N5        29.87S
NEW YORK CITY  FAIR      59  40  49 E3        29.90R
BALTIMORE      CLOUDY    59  43  55 S3        29.86F
WASHINGTON DC  CLOUDY    62  43  49 SE5       29.85S

$$




USA.gov is the U.S. government's official web portal to all federal, state and local government web resources and services.